[[{"header":{"parameterUnit":"m.s-1","parameterCategory":2,"la1":30.2991,"la2":30.254,"lo1":-89.0895,"lo2":-89.0444,"dy":0.0017,"dx":0.0017,"nx":28,"ny":28,"refTime":"2024-03-01T03:00:00:Z","depth":"0","parameterNumber":2,"parameterNumberName":"U-component_of_CURRENTS"},"data":[0,0,0,0,0,0,0,0,0,0,0,0,0,0,0,0,0,0,0,0,0,0,0,0,0,0,0,0,0,0,0,0,0,0,0,0,0,0,0,0,0,0,0,0,0,0,0,0,0,0,0,0,0,0,0,0,0,0,0.2592,0.2593,0,0.2624,0.2624,0.2624,0.2629,0.2629,0.2629,0.2629,0.2661,0.2662,0.2663,0,0,0,0,0,0,0,0,0,0,0,0,0,0.2564,0.2564,0.2592,0.2593,0.2593,0.2624,0.2624,0.2624,0.2629,0.2629,0.2629,0.2629,0.2661,0.2662,0.2663,0,0,0,0,0,0,0,0,0,0,0,0,0,0.2581,0.2564,0.2592,0.2601,0.2603,0.2624,0.2624,0.2624,0.2629,0.2629,0.2629,0.2629,0.2661,0.2662,0.2663,0.2673,0,0,0.2668,0.2668,0,0,0,0,0,0,0,0,0.258,0.2582,0.2599,0.2601,0.2602,0.2625,0.2626,0.2642,0.2629,0.2616,0.2629,0.2629,0.2651,0.2653,0.2656,0.2675,0.2676,0.2668,0.2669,0.2669,0.267,0,0,0,0,0,0,0,0.2579,0.2581,0.2602,0.26,0.2602,0.2614,0.2616,0.2629,0.2632,0.2617,0.2619,0.2626,0.2651,0.2654,0.2656,0.2677,0.2668,0.2669,0.267,0.267,0.2738,0.2739,0,0,0,0,0,0,0.2579,0.2579,0.2601,0.2603,0.2594,0.2615,0.2617,0.2616,0.2632,0.2635,0.2626,0.2626,0.2652,0.2655,0.2658,0.271,0.2669,0.267,0.2671,0.2737,0.2738,0.2739,0,0,0,0,0,0,0.2578,0.258,0.26,0.2595,0.2598,0.2615,0.2614,0.2616,0.262,0.2639,0.2641,0.2628,0.2652,0.2656,0.2683,0.2709,0.2671,0.2672,0.2736,0.2738,0.2739,0.2788,0,0,0,0,0,0,0.2577,0.2579,0.2579,0.2594,0.2599,0.262,0.2614,0.2617,0.2626,0.2626,0.2641,0.2644,0.2652,0.2681,0.2685,0.271,0.2673,0.2735,0.2737,0.2738,0.2785,0.2791,0.2796,0,0,0,0,0,0.2575,0.2581,0.2579,0.2582,0.2597,0.2621,0.2625,0.2635,0.2626,0.2635,0.2648,0.2643,0.2695,0.2683,0.2687,0.2714,0.2734,0.2736,0.2738,0.2783,0.279,0.2796,0,0,0,0,0,0,0.2577,0.2582,0.2581,0.2589,0.2606,0.2623,0.2635,0.2634,0.2649,0.2652,0.2657,0.2662,0.2696,0.2695,0.2682,0.2738,0.2713,0.2716,0.2746,0.2753,0.2758,0.2768,0.2674,0,0,0,0,0,0.2574,0.2577,0.2589,0.26,0.2606,0.2617,0.2626,0.2635,0.2651,0.2657,0.2666,0.2682,0.2708,0.2722,0.2739,0.2769,0.2784,0.2787,0.2793,0.2798,0.2808,0.2857,0.2868,0.2747,0.2747,0.2747,0,0,0.258,0.2585,0.2586,0.26,0.2612,0.2634,0.2622,0.2644,0.2666,0.2659,0.2689,0.27,0.2719,0.2758,0.2773,0.2762,0.2841,0.28,0.2804,0.2813,0.286,0.2872,0.2883,0.2748,0.2748,0.2748,0,0,0.26,0.2594,0.2604,0.2618,0.264,0.265,0.2655,0.2672,0.2682,0.2712,0.2718,0.2748,0.2772,0.2802,0.2819,0.2863,0.2866,0.286,0.2901,0.2948,0.2959,0.2968,0.3006,0.3019,0.2865,0.2865,0.2865,0,0.2608,0.2617,0.2615,0.2635,0.2651,0.2657,0.268,0.2698,0.2723,0.274,0.2729,0.2788,0.28,0.2864,0.2881,0.2878,0.2898,0.2875,0.2956,0.2966,0.2975,0.3012,0.3025,0.2868,0.2867,0.2867,0.2867,0,0.2635,0.2647,0.2659,0.268,0.2698,0.2722,0.2744,0.2764,0.2771,0.2789,0.284,0.2863,0.2899,0.2909,0.2911,0.2982,0.2973,0.2957,0.2942,0.2991,0.3025,0.3038,0.2871,0.2871,0.287,0.2869,0,0,0.2641,0.267,0.2674,0.2684,0.2721,0.2735,0.2782,0.2821,0.2851,0.2879,0.2928,0.2973,0.2977,0.2996,0.3004,0.3047,0.3127,0.303,0.3032,0.3071,0.3229,0.3179,0.3188,0.3124,0.3127,0.3129,0.3229,0,0.2663,0.2692,0.2711,0.2747,0.2758,0.2788,0.2829,0.2868,0.29,0.295,0.2988,0.3036,0.3013,0.3038,0.3079,0.3121,0.3163,0.3101,0.3173,0.3175,0.3127,0.3202,0.3046,0.3119,0.3242,0.3244,0.3246,0,0.2678,0.2693,0.2723,0.2762,0.2772,0.2801,0.2858,0.2897,0.2975,0.3008,0.3065,0.3092,0.3173,0.3138,0.3239,0.3199,0.3218,0.3242,0.3246,0.3191,0.3149,0.3089,0.3138,0.3046,0.3265,0.3264,0.3262,0,0.2653,0.2699,0.2716,0.273,0.2781,0.2807,0.2838,0.2908,0.2955,0.3047,0.3102,0.3179,0.3234,0.3279,0.3323,0.329,0.3429,0.3386,0.3359,0.3355,0.3234,0.3215,0.3204,0.3454,0.3454,0.3454,0.3454,0,0.2652,0.2662,0.2701,0.2708,0.2743,0.2782,0.284,0.2888,0.2982,0.3054,0.3122,0.3205,0.3272,0.3352,0.337,0.3416,0.3467,0.3389,0.3388,0.3245,0.3227,0.3149,0.3111,0.3458,0.3457,0.3456,0.3455,0,0.2607,0.2638,0.2657,0.2708,0.2728,0.2745,0.2837,0.2884,0.2974,0.3077,0.3117,0.3251,0.3363,0.3422,0.3517,0.3476,0.3422,0.352,0.3346,0.3321,0.3176,0.3146,0.3048,0.2966,0.3505,0.3504,0.3504,0,0.2574,0.2581,0.264,0.2661,0.2682,0.2727,0.2771,0.2867,0.2927,0.3106,0.3158,0.3307,0.3422,0.3544,0.3508,0.3541,0.3429,0.338,0.3281,0.3169,0.3136,0.3016,0.2945,0.3144,0.3141,0.3138,0.3136,0,0.251,0.2542,0.2561,0.2614,0.2656,0.2711,0.2776,0.2832,0.2958,0.3066,0.322,0.3337,0.3452,0.3425,0.3443,0.3427,0.3199,0.3323,0.3254,0.2901,0.2723,0.2641,0.3079,0.3112,0.3114,0.3116,0.3117,0.3118,0.2453,0.2463,0.251,0.2559,0.2612,0.2678,0.2712,0.2808,0.2915,0.3051,0.3189,0.3305,0.3293,0.3312,0.3271,0.3045,0.3071,0.2913,0.2905,0.2808,0.266,0.3048,0.3045,0.3047,0.3049,0.305,0.3052,0,0.2375,0.2414,0.2455,0.2515,0.2555,0.2613,0.2704,0.2734,0.2836,0.2978,0.3103,0.3078,0.3027,0.2965,0.2757,0.2628,0.2498,0.2548,0.2337,0.2304,0.2691,0.2606,0.245,0.245,0.245,0.245,0.245,0.245,0.2332,0.2358,0.24,0.2445,0.2488,0.2519,0.2562,0.2626,0.271,0.2751,0.2739,0.2768,0.2712,0.2563,0.2356,0.2297,0.2129,0.2022,0.206,0.2325,0.2357,0.2388,0.2299,0.2081,0.2081,0.1547,0.1543,0.154]},{"header":{"parameterUnit":"m.s-1","parameterCategory":2,"la1":30.2991,"la2":30.254,"lo1":-89.0895,"lo2":-89.0444,"dy":0.0017,"dx":0.0017,"nx":28,"ny":28,"refTime":"2024-03-01T03:00:00:Z","depth":"0","parameterNumber":3,"parameterNumberName":"V-component_of_CURRENTS"},"data":[0,0,0,0,0,0,0,0,0,0,0,0,0,0,0,0,0,0,0,0,0,0,0,0,0,0,0,0,0,0,0,0,0,0,0,0,0,0,0,0,0,0,0,0,0,0,0,0,0,0,0,0,0,0,0,0,0,0,0.0067,0.0067,0,0.0039,0.0039,0.0038,0.0013,0.0013,0.0013,0.0013,-0.0041,-0.0042,-0.0044,0,0,0,0,0,0,0,0,0,0,0,0,0,0.0065,0.0066,0.0067,0.0067,0.0067,0.0039,0.0039,0.0038,0.0013,0.0013,0.0013,0.0013,-0.0041,-0.0042,-0.0044,0,0,0,0,0,0,0,0,0,0,0,0,0,0.0054,0.0066,0.0067,0.0052,0.005,0.0039,0.0039,0.0038,0.0013,0.0013,0.0013,0.0013,-0.004,-0.0042,-0.0044,-0.0051,0,0,-0.005,-0.0051,0,0,0,0,0,0,0,0,0.0054,0.0054,0.0055,0.0053,0.0051,0.0031,0.0018,0.0008,0.0013,0.0026,0.0013,0.0012,-0.0019,-0.0022,-0.0028,-0.0053,-0.0055,-0.005,-0.0051,-0.0052,-0.0053,0,0,0,0,0,0,0,0.0055,0.0054,0.0055,0.0054,0.0052,0.0035,0.0033,0.0016,0.0004,0.0025,0.0023,0.0022,-0.002,-0.0027,-0.003,-0.0056,-0.005,-0.0052,-0.0053,-0.0054,-0.0081,-0.0081,0,0,0,0,0,0,0.0064,0.0055,0.0056,0.0054,0.0054,0.0036,0.0033,0.0036,0.0005,0.0,0.0023,0.0021,-0.0023,-0.0028,-0.0032,-0.002,-0.0052,-0.0054,-0.0055,-0.0082,-0.0081,-0.0081,0,0,0,0,0,0,0.0064,0.0064,0.0057,0.0055,0.0053,0.0036,0.004,0.0036,0.0032,0.0004,-0.0002,0.0023,-0.0024,-0.0029,-0.0041,-0.0023,-0.0055,-0.0056,-0.0082,-0.0082,-0.0081,-0.001,0,0,0,0,0,0,0.0064,0.0064,0.0069,0.0056,0.0053,0.0059,0.004,0.0036,0.0032,0.003,0.0002,-0.0003,-0.0024,-0.0037,-0.0042,-0.0026,-0.0058,-0.0083,-0.0082,-0.0081,-0.0013,-0.0007,-0.0002,0,0,0,0,0,0.0064,0.0074,0.0069,0.0069,0.0061,0.006,0.0058,0.0043,0.0033,0.0037,0.0017,-0.0002,-0.0036,-0.0039,-0.0044,-0.0028,-0.0083,-0.0082,-0.0081,-0.0015,-0.0008,-0.0002,0,0,0,0,0,0,0.0074,0.0072,0.0067,0.0076,0.0072,0.0057,0.0059,0.0048,0.0035,0.0033,0.0002,-0.0004,-0.0008,-0.003,-0.0032,-0.0036,-0.0063,-0.0063,-0.001,-0.0004,0.0001,0.0023,-0.0059,0,0,0,0,0,0.008,0.0087,0.0082,0.0088,0.0089,0.0074,0.0072,0.0065,0.0052,0.0046,0.0025,0.0003,-0.001,-0.0016,-0.0035,-0.0035,-0.0046,-0.003,-0.0024,-0.002,-0.0007,-0.0004,0.0003,-0.0078,-0.0078,-0.0078,0,0,0.0084,0.0085,0.0088,0.0091,0.0085,0.0098,0.0072,0.0075,0.0088,0.0042,0.0047,0.002,-0.0007,-0.0007,-0.0011,-0.0022,-0.0004,-0.0018,-0.0014,-0.0004,-0.0002,0.0006,0.0013,-0.0077,-0.0077,-0.0077,0,0,0.0105,0.01,0.0117,0.012,0.0121,0.0115,0.012,0.011,0.0109,0.0109,0.008,0.0068,0.0042,0.0034,0.0025,0.0049,0.0022,0.0035,0.0085,0.0088,0.0095,0.0101,0.0095,0.01,0.0042,0.0042,0.0042,0,0.0112,0.0135,0.0121,0.0141,0.0153,0.0128,0.0156,0.0151,0.0138,0.0147,0.0121,0.0098,0.0068,0.0083,0.0085,0.0064,0.0055,0.0065,0.0097,0.0103,0.0108,0.01,0.0105,0.0045,0.0045,0.0045,0.0044,0,0.0149,0.0169,0.0179,0.02,0.0207,0.0226,0.0223,0.0228,0.0218,0.0215,0.0221,0.0181,0.017,0.0156,0.0125,0.0148,0.0125,0.0103,0.0086,0.0121,0.0109,0.0113,0.005,0.0049,0.0048,0.0047,0,0,0.0175,0.0202,0.021,0.0236,0.0245,0.026,0.0283,0.0307,0.0333,0.0309,0.0343,0.0307,0.0278,0.0266,0.0226,0.0224,0.024,0.018,0.0178,0.0183,0.024,0.0214,0.0214,0.0223,0.0224,0.0225,0.0217,0,0.0216,0.0271,0.0272,0.0327,0.0359,0.0352,0.0379,0.0393,0.0393,0.0414,0.0385,0.0392,0.0323,0.0318,0.0304,0.0258,0.0253,0.0243,0.0197,0.0196,0.0176,0.0219,0.0245,0.024,0.0221,0.0221,0.0222,0,0.0264,0.0298,0.0359,0.0409,0.0423,0.0448,0.0497,0.0518,0.0534,0.0534,0.0529,0.0498,0.0487,0.0423,0.0374,0.037,0.0311,0.0272,0.0271,0.0227,0.0177,0.0201,0.0247,0.0149,0.0227,0.0226,0.0226,0,0.0308,0.0365,0.0419,0.0435,0.0479,0.051,0.0534,0.0558,0.059,0.0612,0.0632,0.0605,0.0595,0.0533,0.0431,0.0407,0.0379,0.0336,0.0261,0.0258,0.0262,0.0257,0.0219,0.0311,0.0311,0.0311,0.0312,0,0.0363,0.0408,0.0446,0.0478,0.0549,0.0562,0.0632,0.0648,0.0683,0.0733,0.0693,0.0723,0.0621,0.0582,0.0482,0.0388,0.0417,0.0285,0.0263,0.0285,0.0283,0.0181,0.0106,0.0311,0.0311,0.0311,0.0311,0,0.0405,0.0427,0.0493,0.0549,0.0571,0.0622,0.0688,0.0735,0.0759,0.0823,0.0835,0.0818,0.0781,0.0674,0.058,0.0458,0.0313,0.0328,0.0355,0.0336,0.0161,0.0088,0.0016,-0.0039,0.0251,0.025,0.025,0,0.0431,0.0467,0.0539,0.0578,0.0606,0.0678,0.0726,0.0769,0.0818,0.0885,0.0921,0.0912,0.0935,0.0787,0.0599,0.0449,0.0322,0.0322,0.0276,0.0171,0.0074,0.0024,-0.0021,0.0308,0.0308,0.0308,0.0308,0,0.0475,0.0495,0.0544,0.0622,0.0682,0.0754,0.0826,0.0876,0.0934,0.1004,0.1089,0.1128,0.1008,0.0889,0.0658,0.0524,0.025,0.0315,0.0212,0.0126,0.0065,-0.0004,0.0279,0.0308,0.0308,0.0308,0.0308,0.0308,0.0497,0.0536,0.0591,0.0666,0.0736,0.0816,0.0884,0.0969,0.1071,0.1207,0.123,0.1365,0.1151,0.0868,0.0653,0.0277,0.0256,0.016,0.0084,0.0047,-0.0015,0.026,0.0254,0.0253,0.0253,0.0253,0.0253,0,0.0518,0.0558,0.0628,0.0718,0.0795,0.0827,0.0939,0.1023,0.1158,0.1354,0.1474,0.1512,0.1223,0.0901,0.0373,0.0102,0.0002,-0.0047,-0.01,-0.0134,0.0131,0.0124,0.0083,0.0083,0.0083,0.0083,0.0083,0.0083,0.0528,0.0585,0.062,0.0741,0.0809,0.0915,0.0982,0.1127,0.1294,0.1559,0.173,0.183,0.1576,0.065,0.0027,-0.0127,-0.0302,-0.0333,-0.0442,-0.0254,-0.0239,-0.0226,-0.0248,-0.0367,-0.0367,-0.0649,-0.0652,-0.0655]}],[{"header":{"parameterUnit":"m.s-1","parameterCategory":2,"la1":30.2991,"la2":30.254,"lo1":-89.0895,"lo2":-89.0444,"dy":0.0017,"dx":0.0017,"nx":28,"ny":28,"refTime":"2024-03-01T03:00:00:Z","depth":"2","parameterNumber":2,"parameterNumberName":"U-component_of_CURRENTS"},"data":[0,0,0,0,0,0,0,0,0,0,0,0,0,0,0,0,0,0,0,0,0,0,0,0,0,0,0,0,0,0,0,0,0,0,0,0,0,0,0,0,0,0,0,0,0,0,0,0,0,0,0,0,0,0,0,0,0,0,0.1887,0.1887,0,0.19,0.19,0.19,0.1887,0.1886,0.1886,0.1885,0.1918,0.1919,0.192,0,0,0,0,0,0,0,0,0,0,0,0,0,0.1888,0.1888,0.1887,0.1887,0.1887,0.19,0.19,0.19,0.1887,0.1886,0.1885,0.1885,0.1917,0.1919,0.192,0,0,0,0,0,0,0,0,0,0,0,0,0,0.1893,0.1888,0.1887,0.1882,0.1882,0.19,0.19,0.19,0.1887,0.1886,0.1885,0.1885,0.1917,0.1919,0.1921,0.1947,0,0,0.1927,0.1928,0,0,0,0,0,0,0,0,0.1892,0.1892,0.1883,0.1883,0.1883,0.1891,0.1913,0.1917,0.1887,0.1884,0.1885,0.1884,0.1912,0.1914,0.1917,0.1949,0.195,0.1927,0.1928,0.1929,0.1929,0,0,0,0,0,0,0,0.1892,0.1892,0.1892,0.1883,0.1883,0.1893,0.1892,0.1914,0.1902,0.1885,0.1884,0.1886,0.1912,0.1915,0.1918,0.1951,0.1927,0.1929,0.193,0.1931,0.1993,0.1994,0,0,0,0,0,0,0.189,0.1892,0.1891,0.1892,0.1886,0.1894,0.1893,0.1889,0.1901,0.1902,0.1887,0.1886,0.1912,0.1915,0.1919,0.1967,0.1929,0.1931,0.1932,0.1993,0.1993,0.1994,0,0,0,0,0,0,0.189,0.189,0.1891,0.1893,0.1894,0.1894,0.189,0.189,0.1902,0.1903,0.1904,0.1901,0.1912,0.1916,0.1936,0.1968,0.1932,0.1933,0.1992,0.1993,0.1993,0.2053,0,0,0,0,0,0,0.189,0.189,0.1893,0.1893,0.1894,0.1905,0.1891,0.189,0.1905,0.1903,0.1916,0.1917,0.1911,0.1933,0.1938,0.197,0.1935,0.1991,0.1992,0.1993,0.2051,0.2056,0.2061,0,0,0,0,0,0.189,0.1893,0.1893,0.1894,0.1896,0.1906,0.1908,0.1905,0.1906,0.1914,0.1917,0.1917,0.1942,0.1936,0.1941,0.1974,0.1991,0.1992,0.1993,0.2049,0.2055,0.2061,0,0,0,0,0,0,0.1896,0.1892,0.1892,0.1895,0.1903,0.1904,0.1913,0.1917,0.1927,0.1928,0.1928,0.193,0.1964,0.1955,0.1947,0.1991,0.1966,0.1968,0.2006,0.2012,0.2017,0.2018,0.1937,0,0,0,0,0,0.1901,0.1901,0.1903,0.1908,0.1913,0.1919,0.1927,0.1926,0.1932,0.1936,0.1943,0.1951,0.1972,0.1979,0.1992,0.2018,0.2023,0.2039,0.2044,0.2048,0.2051,0.2091,0.2101,0.1997,0.1997,0.1997,0,0,0.1905,0.1904,0.1904,0.191,0.1917,0.1929,0.1922,0.1935,0.1951,0.194,0.1965,0.1977,0.1984,0.2012,0.2025,0.2008,0.2078,0.205,0.2054,0.2054,0.2093,0.2104,0.2113,0.1998,0.1998,0.1998,0,0,0.1914,0.1914,0.1919,0.1928,0.194,0.1945,0.1954,0.1962,0.1971,0.1996,0.1997,0.2021,0.2043,0.2055,0.2065,0.2104,0.2109,0.2109,0.2133,0.2173,0.2183,0.2191,0.2207,0.2216,0.2105,0.2105,0.2105,0,0.1922,0.1924,0.1925,0.1937,0.1948,0.1955,0.1971,0.1985,0.2,0.2018,0.2007,0.2058,0.2065,0.2111,0.2119,0.2119,0.2132,0.2115,0.2182,0.219,0.2198,0.2212,0.2221,0.2108,0.2107,0.2107,0.2107,0,0.1932,0.194,0.1947,0.1961,0.1977,0.199,0.2009,0.2028,0.2043,0.206,0.2108,0.2116,0.2146,0.2155,0.2151,0.2209,0.2199,0.2193,0.2172,0.2212,0.2224,0.2233,0.2112,0.2111,0.211,0.2109,0,0,0.1929,0.1949,0.1952,0.196,0.199,0.1998,0.2038,0.2073,0.2101,0.2125,0.2165,0.2204,0.2216,0.2227,0.2232,0.2256,0.232,0.2247,0.2247,0.2271,0.2399,0.2359,0.2365,0.2334,0.2336,0.2337,0.2385,0,0.1937,0.1954,0.197,0.1993,0.2003,0.203,0.2064,0.2101,0.2135,0.2173,0.2205,0.2244,0.2243,0.226,0.2294,0.2318,0.2346,0.2306,0.2348,0.2349,0.2317,0.2375,0.2178,0.2202,0.2393,0.2395,0.2396,0,0.1938,0.1949,0.1972,0.2001,0.201,0.2032,0.2086,0.2117,0.2183,0.2211,0.2266,0.2291,0.2348,0.2328,0.2407,0.2386,0.24,0.2407,0.2409,0.2357,0.2326,0.2192,0.221,0.241,0.2409,0.2408,0.2407,0,0.1917,0.1947,0.1962,0.1972,0.2012,0.2037,0.2067,0.2133,0.2174,0.2241,0.2278,0.2347,0.2392,0.2426,0.2464,0.2443,0.2535,0.2505,0.248,0.2476,0.2307,0.2286,0.2557,0.2557,0.2557,0.2557,0.2557,0,0.1907,0.1914,0.1952,0.1956,0.1984,0.2023,0.207,0.2111,0.2187,0.2234,0.23,0.235,0.2424,0.2486,0.2492,0.2528,0.257,0.2498,0.2497,0.2321,0.2301,0.2475,0.2465,0.2558,0.2558,0.2558,0.2557,0,0.1868,0.1895,0.1906,0.1951,0.1971,0.1989,0.2069,0.2098,0.218,0.2245,0.2271,0.2388,0.2466,0.2523,0.2588,0.2573,0.2591,0.2588,0.237,0.2342,0.249,0.2482,0.2554,0.2554,0.2553,0.2552,0.2552,0,0.1845,0.1848,0.1892,0.1903,0.1923,0.1966,0.1994,0.2082,0.2126,0.2256,0.2281,0.2399,0.2446,0.2542,0.2548,0.256,0.2602,0.2378,0.2299,0.2504,0.2495,0.2488,0.2482,0.2091,0.2087,0.2084,0.2081,0,0.1796,0.1814,0.1822,0.1853,0.1879,0.191,0.1967,0.1996,0.2094,0.2153,0.2232,0.2279,0.2395,0.234,0.2392,0.2367,0.2358,0.2309,0.2597,0.213,0.2073,0.2063,0.207,0.205,0.2053,0.2056,0.2057,0.2059,0.1752,0.1747,0.1768,0.1787,0.1812,0.1826,0.1821,0.1886,0.193,0.1979,0.2098,0.2107,0.2168,0.2147,0.2092,0.2067,0.2227,0.211,0.2118,0.213,0.2075,0.2022,0.1978,0.198,0.1982,0.1984,0.1986,0,0.1686,0.1692,0.1703,0.1712,0.1696,0.1757,0.1773,0.1738,0.1734,0.1819,0.1862,0.1738,0.1729,0.179,0.1708,0.1718,0.1672,0.164,0.1554,0.1587,0.1617,0.1532,0.1292,0.129,0.1287,0.1285,0,0,0.1653,0.1627,0.163,0.1585,0.16,0.1552,0.1535,0.1497,0.1514,0.1473,0.1487,0.1638,0.1731,0.1481,0.1461,0.1355,0.1448,0.13,0.1863,0.1795,0.1821,0.1907,0.1818,0,0,0,0,0]},{"header":{"parameterUnit":"m.s-1","parameterCategory":2,"la1":30.2991,"la2":30.254,"lo1":-89.0895,"lo2":-89.0444,"dy":0.0017,"dx":0.0017,"nx":28,"ny":28,"refTime":"2024-03-01T03:00:00:Z","depth":"2","parameterNumber":3,"parameterNumberName":"V-component_of_CURRENTS"},"data":[0,0,0,0,0,0,0,0,0,0,0,0,0,0,0,0,0,0,0,0,0,0,0,0,0,0,0,0,0,0,0,0,0,0,0,0,0,0,0,0,0,0,0,0,0,0,0,0,0,0,0,0,0,0,0,0,0,0,0.0132,0.0132,0,0.0117,0.0116,0.0116,0.0101,0.0101,0.0101,0.0101,0.0047,0.0046,0.0045,0,0,0,0,0,0,0,0,0,0,0,0,0,0.0119,0.0119,0.0132,0.0132,0.0132,0.0117,0.0116,0.0116,0.0101,0.0101,0.0101,0.0101,0.0048,0.0046,0.0045,0,0,0,0,0,0,0,0,0,0,0,0,0,0.0116,0.0119,0.0132,0.0123,0.0122,0.0117,0.0116,0.0116,0.0101,0.0101,0.0101,0.01,0.0048,0.0047,0.0045,0.0038,0,0,0.0039,0.0038,0,0,0,0,0,0,0,0,0.0116,0.0116,0.0124,0.0123,0.0122,0.0111,0.0092,0.0088,0.0101,0.0109,0.0101,0.01,0.0066,0.0062,0.006,0.0035,0.0033,0.0039,0.0037,0.0037,0.0036,0,0,0,0,0,0,0,0.0116,0.0117,0.0126,0.0124,0.0123,0.0109,0.0108,0.0091,0.0088,0.0108,0.0107,0.0106,0.0065,0.0062,0.0058,0.0032,0.0039,0.0037,0.0036,0.0035,0.0011,0.0011,0,0,0,0,0,0,0.0121,0.0117,0.0126,0.0125,0.0119,0.011,0.0109,0.0115,0.0089,0.0085,0.0106,0.0105,0.0065,0.0061,0.0056,0.0058,0.0037,0.0035,0.0034,0.001,0.0011,0.0011,0,0,0,0,0,0,0.0121,0.0122,0.0127,0.012,0.012,0.011,0.0116,0.0114,0.0112,0.0088,0.0083,0.0106,0.0065,0.0059,0.0049,0.0055,0.0034,0.0032,0.001,0.001,0.0011,0.0054,0,0,0,0,0,0,0.012,0.0122,0.0126,0.0121,0.0121,0.013,0.0117,0.0114,0.0112,0.011,0.0086,0.0081,0.0064,0.0052,0.0047,0.0052,0.0031,0.0009,0.001,0.0011,0.0052,0.0056,0.0059,0,0,0,0,0,0.012,0.0129,0.0127,0.0128,0.0128,0.0131,0.0129,0.0121,0.0112,0.0116,0.0101,0.0081,0.0054,0.0051,0.0045,0.005,0.0009,0.001,0.0011,0.005,0.0055,0.0059,0,0,0,0,0,0,0.0122,0.0128,0.0126,0.0135,0.0135,0.0128,0.013,0.0123,0.0114,0.0111,0.0087,0.0081,0.0073,0.0057,0.0054,0.0046,0.0028,0.0028,0.006,0.0065,0.0068,0.0082,0.0029,0,0,0,0,0,0.0125,0.0135,0.0136,0.0143,0.0145,0.0137,0.0136,0.0132,0.0124,0.012,0.0103,0.0085,0.0073,0.0066,0.0051,0.0047,0.003,0.0046,0.005,0.0054,0.0061,0.0042,0.0045,0.0015,0.0015,0.0015,0,0,0.0126,0.0132,0.0136,0.0144,0.0143,0.0153,0.0136,0.014,0.0149,0.0115,0.0117,0.0095,0.0075,0.0071,0.0066,0.0059,0.0053,0.0055,0.0058,0.0064,0.0043,0.0046,0.0049,0.0016,0.0016,0.0016,0,0,0.0139,0.0141,0.0155,0.016,0.0164,0.0163,0.0166,0.0161,0.0161,0.016,0.0139,0.0126,0.0105,0.0095,0.0087,0.0103,0.0072,0.0094,0.0126,0.0108,0.011,0.0112,0.0095,0.0095,0.0099,0.0099,0.0099,0,0.014,0.0162,0.0158,0.0174,0.0183,0.017,0.0189,0.0187,0.018,0.0183,0.0167,0.0142,0.0119,0.012,0.0126,0.0111,0.0095,0.011,0.0113,0.0114,0.0115,0.0098,0.0097,0.0101,0.0101,0.0101,0.0101,0,0.0165,0.0182,0.0191,0.0211,0.0218,0.0232,0.0233,0.0237,0.023,0.0225,0.0221,0.0192,0.0178,0.0167,0.0151,0.015,0.0135,0.0117,0.0102,0.0121,0.0101,0.01,0.0104,0.0104,0.0103,0.0102,0,0,0.0174,0.0205,0.0209,0.0231,0.0242,0.0256,0.027,0.0285,0.0301,0.028,0.0294,0.0265,0.0244,0.0234,0.0206,0.019,0.018,0.0161,0.0159,0.0146,0.0139,0.0125,0.0122,0.016,0.016,0.016,0.0123,0,0.0198,0.0241,0.0248,0.0289,0.0314,0.0313,0.0332,0.034,0.0339,0.0347,0.0316,0.0312,0.0272,0.0265,0.0242,0.0198,0.0178,0.0192,0.0122,0.012,0.0106,0.0121,0.0138,0.0106,0.0121,0.0121,0.0121,0,0.0226,0.0254,0.03,0.0344,0.0354,0.0374,0.0408,0.0426,0.0428,0.0425,0.041,0.038,0.0356,0.0316,0.0251,0.0261,0.0205,0.0166,0.0163,0.0136,0.0104,0.0089,0.0102,0.0118,0.0118,0.0118,0.0118,0,0.0247,0.0294,0.0336,0.0349,0.039,0.0412,0.0433,0.0448,0.0478,0.0474,0.0488,0.0442,0.0431,0.0357,0.0272,0.026,0.0199,0.0169,0.0104,0.0102,0.0096,0.0094,0.0119,0.0119,0.0119,0.0119,0.0119,0,0.0278,0.0313,0.0351,0.0375,0.0432,0.0446,0.0502,0.0513,0.054,0.0588,0.0531,0.0554,0.0441,0.0391,0.0298,0.0204,0.0215,0.0115,0.0093,0.0111,0.0111,0.0105,0.0103,0.0118,0.0118,0.0118,0.0119,0,0.03,0.0322,0.0375,0.0424,0.0445,0.0487,0.0557,0.0599,0.0612,0.0673,0.0675,0.064,0.0577,0.046,0.0345,0.025,0.0152,0.0111,0.0142,0.0124,0.0058,0.006,0.0034,0.0034,0.0033,0.0032,0.0032,0,0.0317,0.0345,0.0411,0.0451,0.0477,0.0542,0.0593,0.0631,0.0686,0.0738,0.0774,0.0726,0.0716,0.0537,0.0358,0.0192,0.0161,0.0084,0.0059,0.007,0.0051,0.0053,0.0056,0.0067,0.0067,0.0066,0.0066,0,0.035,0.0369,0.0414,0.0495,0.0556,0.0634,0.0711,0.0768,0.0829,0.0882,0.0946,0.094,0.0772,0.0611,0.0367,0.0246,0.0109,0.0076,0.0085,0.0086,0.0097,0.008,0.0081,0.0065,0.0066,0.0066,0.0066,0.0066,0.0373,0.041,0.0469,0.0549,0.0623,0.0725,0.0808,0.0894,0.0998,0.1095,0.1075,0.107,0.0867,0.0565,0.0349,0.0108,0.012,0.0028,0.003,0.0031,0.0043,0.0052,0.0014,0.0014,0.0014,0.0013,0.0013,0,0.0408,0.0451,0.0523,0.0624,0.0714,0.075,0.089,0.0979,0.1117,0.1177,0.123,0.1039,0.085,0.0606,0.0262,0.0057,0.0034,-0.0022,0.0002,0.0005,0.0007,0.0018,-0.0018,-0.0019,-0.002,-0.002,0,0,0.0428,0.0497,0.0536,0.0685,0.0762,0.0903,0.0995,0.1123,0.1201,0.127,0.126,0.1223,0.0928,0.0672,0.0392,0.0191,0.014,0.0141,0.019,0.0255,0.026,0.0061,0.0084,0,0,0,0,0]}],[{"header":{"parameterUnit":"m.s-1","parameterCategory":2,"la1":30.2991,"la2":30.254,"lo1":-89.0895,"lo2":-89.0444,"dy":0.0017,"dx":0.0017,"nx":28,"ny":28,"refTime":"2024-03-01T03:00:00:Z","depth":"4","parameterNumber":2,"parameterNumberName":"U-component_of_CURRENTS"},"data":[0,0,0,0,0,0,0,0,0,0,0,0,0,0,0,0,0,0,0,0,0,0,0,0,0,0,0,0,0,0,0,0,0,0,0,0,0,0,0,0,0,0,0,0,0,0,0,0,0,0,0,0,0,0,0,0,0,0,0.1146,0.1146,0,0.1149,0.1149,0.1149,0.1168,0.1169,0.117,0.117,0.1199,0.1199,0.1199,0,0,0,0,0,0,0,0,0,0,0,0,0,0.1136,0.1136,0.1146,0.1146,0.1147,0.1149,0.1149,0.1149,0.1168,0.1169,0.117,0.1171,0.1199,0.1199,0.1199,0,0,0,0,0,0,0,0,0,0,0,0,0,0.1138,0.1136,0.1146,0.1158,0.1159,0.1149,0.1149,0.1149,0.1168,0.1169,0.117,0.1171,0.1199,0.1199,0.1199,0.1181,0,0,0.12,0.12,0,0,0,0,0,0,0,0,0.1138,0.1138,0.1156,0.1157,0.1159,0.1161,0.1156,0.1162,0.1168,0.1163,0.117,0.1171,0.1189,0.119,0.1185,0.1182,0.1184,0.12,0.12,0.12,0.12,0,0,0,0,0,0,0,0.1138,0.1138,0.1145,0.1156,0.1158,0.1156,0.1157,0.1157,0.1169,0.1163,0.1165,0.1168,0.119,0.1185,0.1186,0.1184,0.12,0.12,0.12,0.12,0.1264,0.1266,0,0,0,0,0,0,0.1141,0.1138,0.1145,0.1146,0.1153,0.1156,0.1157,0.1158,0.1169,0.1172,0.1167,0.1169,0.1184,0.1186,0.1187,0.1246,0.12,0.12,0.12,0.1263,0.1265,0.1266,0,0,0,0,0,0,0.1141,0.1142,0.1145,0.1144,0.1144,0.1155,0.1155,0.1157,0.1181,0.1172,0.1175,0.1193,0.1185,0.1187,0.1213,0.1245,0.12,0.1201,0.1261,0.1263,0.1266,0.1313,0,0,0,0,0,0,0.114,0.1141,0.1155,0.1144,0.1145,0.1158,0.1155,0.1157,0.118,0.1183,0.1194,0.1196,0.1186,0.1213,0.1213,0.1244,0.1201,0.1259,0.1262,0.1265,0.1309,0.1317,0.1323,0,0,0,0,0,0.114,0.1149,0.1155,0.1157,0.1159,0.1159,0.116,0.1169,0.1181,0.1193,0.1205,0.1197,0.1232,0.1214,0.1214,0.1246,0.1258,0.1261,0.1265,0.1306,0.1315,0.1323,0,0,0,0,0,0,0.1151,0.1151,0.1159,0.1168,0.1174,0.1164,0.1179,0.1185,0.1202,0.1215,0.1208,0.1211,0.1247,0.1241,0.1221,0.1275,0.1247,0.1251,0.1279,0.1287,0.1294,0.1301,0.1201,0,0,0,0,0,0.116,0.117,0.1168,0.118,0.1186,0.1189,0.1196,0.1203,0.121,0.122,0.1227,0.1242,0.1256,0.1268,0.1275,0.1299,0.1301,0.1324,0.1331,0.1336,0.1344,0.1371,0.138,0.1278,0.1278,0.1278,0,0,0.1167,0.1171,0.1177,0.1184,0.1191,0.12,0.1196,0.1215,0.1232,0.122,0.1255,0.1264,0.1268,0.1297,0.1314,0.13,0.1368,0.1341,0.1345,0.135,0.1376,0.1385,0.1394,0.128,0.128,0.128,0,0,0.1177,0.1192,0.1202,0.1211,0.1228,0.1228,0.1242,0.1249,0.1267,0.1294,0.1296,0.1325,0.1343,0.1352,0.1358,0.1407,0.1401,0.1418,0.1459,0.1485,0.1493,0.15,0.1519,0.1527,0.1423,0.1423,0.1423,0,0.1192,0.1198,0.1206,0.1218,0.1231,0.1245,0.126,0.1275,0.1294,0.1313,0.1318,0.1362,0.1368,0.1403,0.1426,0.1422,0.1435,0.1424,0.1493,0.15,0.1507,0.1524,0.1532,0.1426,0.1426,0.1425,0.1425,0,0.1198,0.1217,0.1226,0.1246,0.1262,0.1278,0.1297,0.1326,0.1353,0.1366,0.1417,0.1426,0.1455,0.1466,0.1463,0.1519,0.1512,0.1495,0.1469,0.152,0.1534,0.1543,0.143,0.1429,0.1428,0.1427,0,0,0.1191,0.1224,0.123,0.1245,0.128,0.1287,0.1332,0.1364,0.1395,0.1432,0.147,0.151,0.1527,0.1536,0.1541,0.1568,0.163,0.1562,0.1563,0.1575,0.1692,0.1587,0.1585,0.1628,0.163,0.1631,0.1684,0,0.1197,0.122,0.1239,0.1271,0.1282,0.1319,0.1353,0.1392,0.1429,0.1471,0.1506,0.1544,0.1549,0.1572,0.1605,0.1623,0.1654,0.1617,0.1646,0.1646,0.1542,0.1592,0.1637,0.169,0.1692,0.1693,0.1694,0,0.119,0.1209,0.1239,0.1279,0.129,0.1319,0.1379,0.1412,0.1478,0.151,0.1564,0.1586,0.1648,0.1636,0.1707,0.1687,0.1703,0.171,0.1712,0.1602,0.1556,0.1629,0.1709,0.1708,0.1707,0.1706,0.1705,0,0.1163,0.1205,0.1231,0.1246,0.1296,0.1331,0.1368,0.1433,0.1466,0.1544,0.158,0.1642,0.1687,0.1721,0.1758,0.1742,0.1821,0.1791,0.1709,0.1702,0.1759,0.175,0.1839,0.1839,0.1839,0.1838,0.1838,0,0.1142,0.1164,0.1226,0.1237,0.1276,0.1325,0.1378,0.1423,0.1494,0.153,0.1605,0.1638,0.1716,0.1766,0.178,0.1777,0.1844,0.1727,0.1712,0.1778,0.1771,0.1764,0.1755,0.184,0.184,0.184,0.1839,0,0.1098,0.114,0.117,0.1236,0.1262,0.1294,0.1376,0.1402,0.149,0.1543,0.1573,0.1664,0.1728,0.1787,0.1844,0.1798,0.1801,0.1782,0.1863,0.1849,0.1658,0.1651,0.1685,0.1682,0.1679,0.1677,0.1675,0,0.1073,0.1086,0.116,0.1178,0.1213,0.1273,0.1303,0.1391,0.1418,0.1537,0.1546,0.1649,0.1699,0.1699,0.1768,0.179,0.177,0.1755,0.1694,0.1662,0.1645,0.1642,0.1638,0.1671,0.167,0.1669,0.1669,0,0.1021,0.1061,0.1083,0.1122,0.116,0.1189,0.1246,0.126,0.1356,0.1455,0.1479,0.1511,0.1584,0.1626,0.1668,0.1674,0.175,0.1726,0.173,0.1673,0.1645,0.163,0.163,0.1659,0.1661,0.1661,0.1662,0,0.0986,0.0986,0.1022,0.1045,0.1083,0.1079,0.1127,0.1158,0.12,0.1335,0.1341,0.1454,0.1558,0.1568,0.1598,0.1608,0.1576,0.1507,0.1523,0.1534,0.1462,0.1403,0.1338,0,0,0,0,0,0.094,0.0923,0.0937,0.0941,0.0972,0.0996,0.1066,0.1117,0.1226,0.1203,0.1267,0.1322,0.1372,0.1432,0.1413,0.154,0.1587,0.151,0.1516,0.1607,0.1618,0.1548,0,0,0,0,0,0,0.0905,0.0912,0.0903,0.0847,0.0835,0.0851,0.0895,0.0971,0.097,0.1095,0.1134,0.123,0.1308,0.1368,0.1382,0.1403,0.1375,0.1588,0.1584,0.1601,0.1611,0.1619,0.1551,0,0,0,0,0]},{"header":{"parameterUnit":"m.s-1","parameterCategory":2,"la1":30.2991,"la2":30.254,"lo1":-89.0895,"lo2":-89.0444,"dy":0.0017,"dx":0.0017,"nx":28,"ny":28,"refTime":"2024-03-01T03:00:00:Z","depth":"4","parameterNumber":3,"parameterNumberName":"V-component_of_CURRENTS"},"data":[0,0,0,0,0,0,0,0,0,0,0,0,0,0,0,0,0,0,0,0,0,0,0,0,0,0,0,0,0,0,0,0,0,0,0,0,0,0,0,0,0,0,0,0,0,0,0,0,0,0,0,0,0,0,0,0,0,0,0.0169,0.0169,0,0.0171,0.0171,0.0171,0.0168,0.0168,0.0168,0.0168,0.0144,0.0143,0.0143,0,0,0,0,0,0,0,0,0,0,0,0,0,0.015,0.015,0.0169,0.0169,0.0169,0.0171,0.0171,0.0171,0.0168,0.0168,0.0168,0.0168,0.0144,0.0143,0.0143,0,0,0,0,0,0,0,0,0,0,0,0,0,0.0156,0.015,0.0169,0.0168,0.0168,0.0171,0.0171,0.0171,0.0168,0.0168,0.0168,0.0168,0.0144,0.0143,0.0143,0.0141,0,0,0.014,0.014,0,0,0,0,0,0,0,0,0.0155,0.0156,0.0168,0.0168,0.0168,0.0169,0.0155,0.016,0.0168,0.0168,0.0168,0.0168,0.015,0.0149,0.015,0.014,0.0139,0.014,0.014,0.0139,0.0139,0,0,0,0,0,0,0,0.0155,0.0156,0.017,0.0168,0.0168,0.0162,0.0163,0.0156,0.016,0.0168,0.0168,0.0168,0.015,0.0151,0.0149,0.0139,0.014,0.0139,0.0139,0.0139,0.0128,0.0128,0,0,0,0,0,0,0.0155,0.0156,0.017,0.017,0.0161,0.0163,0.0164,0.0169,0.016,0.0159,0.0168,0.0168,0.0152,0.015,0.0148,0.0153,0.0139,0.0139,0.0138,0.0128,0.0128,0.0128,0,0,0,0,0,0,0.0155,0.0157,0.017,0.0162,0.0164,0.0163,0.0169,0.0169,0.0173,0.016,0.0159,0.0172,0.0152,0.0149,0.0147,0.0152,0.0138,0.0137,0.0128,0.0128,0.0128,0.0157,0,0,0,0,0,0,0.0154,0.0157,0.0162,0.0163,0.0164,0.0176,0.0169,0.0169,0.0173,0.0172,0.0163,0.0161,0.0152,0.0148,0.0146,0.015,0.0137,0.0128,0.0128,0.0128,0.0156,0.0159,0.0161,0,0,0,0,0,0.0154,0.0161,0.0162,0.0164,0.0171,0.0176,0.0177,0.0176,0.0173,0.0178,0.0172,0.0161,0.0149,0.0148,0.0145,0.0149,0.0127,0.0128,0.0128,0.0155,0.0158,0.0161,0,0,0,0,0,0,0.0152,0.0161,0.0163,0.0172,0.0176,0.0176,0.0179,0.0179,0.0178,0.0178,0.0165,0.0163,0.0162,0.0152,0.0151,0.0147,0.0136,0.0136,0.0157,0.016,0.0162,0.0166,0.0136,0,0,0,0,0,0.0155,0.0165,0.017,0.0177,0.018,0.0181,0.0183,0.0184,0.0182,0.0182,0.0175,0.0167,0.0162,0.0158,0.0151,0.015,0.0133,0.015,0.0152,0.0154,0.0156,0.0133,0.0134,0.013,0.013,0.013,0,0,0.0156,0.0163,0.0168,0.0178,0.018,0.0189,0.0182,0.0188,0.0197,0.0179,0.0185,0.0175,0.0163,0.0163,0.0161,0.0155,0.0147,0.0155,0.0157,0.0157,0.0134,0.0134,0.0134,0.013,0.013,0.013,0,0,0.0163,0.017,0.0181,0.0187,0.0195,0.0197,0.02,0.0203,0.0206,0.0211,0.0199,0.0192,0.0186,0.0177,0.0172,0.0182,0.016,0.018,0.0195,0.0173,0.0173,0.0173,0.0154,0.0152,0.018,0.0181,0.0181,0,0.0163,0.0181,0.0184,0.0196,0.0204,0.0202,0.0216,0.0218,0.022,0.0222,0.0216,0.0205,0.0192,0.0191,0.0194,0.0187,0.0172,0.0186,0.0176,0.0175,0.0175,0.0155,0.0153,0.0182,0.0182,0.0182,0.0182,0,0.0179,0.0194,0.0201,0.0219,0.0227,0.0238,0.0244,0.0249,0.025,0.0249,0.0249,0.0232,0.0225,0.0218,0.021,0.0202,0.0192,0.0182,0.017,0.0177,0.0156,0.0153,0.0184,0.0184,0.0183,0.0183,0,0,0.0179,0.0208,0.0211,0.0229,0.0243,0.0253,0.0266,0.0278,0.0289,0.028,0.0289,0.0273,0.026,0.0253,0.0238,0.0218,0.0199,0.0201,0.0199,0.0183,0.0153,0.0145,0.014,0.0187,0.0187,0.0187,0.0141,0,0.0193,0.0224,0.0234,0.0265,0.0283,0.0289,0.0303,0.0311,0.0315,0.032,0.0298,0.0299,0.0275,0.0274,0.025,0.0216,0.0191,0.0212,0.0147,0.0145,0.0138,0.0136,0.0185,0.0139,0.0138,0.0137,0.0137,0,0.0206,0.0229,0.0262,0.0299,0.0307,0.0324,0.0352,0.0367,0.0368,0.0369,0.0358,0.034,0.0316,0.0293,0.0232,0.0248,0.0202,0.0169,0.0167,0.0146,0.013,0.0129,0.0131,0.0131,0.0132,0.0132,0.0132,0,0.0212,0.025,0.0281,0.0293,0.0328,0.0347,0.0368,0.038,0.0406,0.0401,0.0414,0.0373,0.0368,0.0302,0.0236,0.0234,0.0164,0.0151,0.0097,0.0096,0.0105,0.0105,0.0098,0.0098,0.0098,0.0098,0.0098,0,0.0225,0.0252,0.029,0.0308,0.0352,0.0368,0.0414,0.0424,0.0448,0.0484,0.0444,0.0456,0.037,0.0322,0.0247,0.0166,0.017,0.0099,0.0083,0.0118,0.0121,0.0102,0.0103,0.0096,0.0097,0.0097,0.0097,0,0.023,0.0252,0.0294,0.0338,0.0358,0.0392,0.0458,0.0492,0.0505,0.0551,0.0553,0.0521,0.0461,0.0366,0.0264,0.0193,0.0106,0.0072,0.0121,0.0109,0.0049,0.0052,0.0009,0.0008,0.0008,0.0007,0.0007,0,0.0237,0.0258,0.0319,0.0353,0.038,0.0436,0.0482,0.0518,0.0562,0.0596,0.062,0.0574,0.0539,0.0393,0.028,0.0127,0.0101,0.0046,0.0039,0.005,0.0039,0.0043,0.0047,0.0006,0.0006,0.0006,0.0005,0,0.0252,0.0273,0.0311,0.0382,0.0438,0.0506,0.0574,0.061,0.066,0.0667,0.0681,0.0605,0.0536,0.0406,0.0284,0.0173,0.0076,0.0039,0.004,0.0033,0.0046,0.0036,0.0041,0.0003,0.0004,0.0004,0.0004,0,0.0267,0.0295,0.035,0.0415,0.0488,0.0567,0.0598,0.0657,0.0699,0.0731,0.0732,0.0652,0.0601,0.0431,0.0321,0.0207,0.0173,0.0123,0.0119,0.0119,0.0158,0.0191,0.0181,0,0,0,0,0,0.0282,0.0322,0.0382,0.0462,0.0536,0.0584,0.0662,0.0689,0.0732,0.075,0.0745,0.068,0.0524,0.0455,0.0341,0.0296,0.0143,0.0156,0.0081,-0.0008,-0.0006,0.0019,0,0,0,0,0,0,0.0296,0.0351,0.0385,0.0493,0.0554,0.0646,0.0699,0.0727,0.0737,0.0753,0.0674,0.0636,0.0485,0.0593,0.0336,0.0301,0.0233,0.0084,0.0081,-0.0009,-0.0007,-0.0005,0.0021,0,0,0,0,0]}]]